AAL3102 KCLT-KJFK

Flight info

Callsign AAL3102
Flight time N/A
Altitude 39000
Route BARMY5 TYI Q64 SAWED Q108 SIE CAMRN5
Aircraft B772/H-SDE2E3FGHIJ5LORVWXY/LB1D1

Departure

Time 2026-05-06 21:41
Airport Charlotte Douglas International Airport (KCLT)

Arrival

Time N/A
Airport John F. Kennedy International Airport (KJFK)
Time Latitude Longitude Altitude Speed Heading
2026-05-06 21:05 35.21976 -80.94785 731 ft 0 kts 358°
2026-05-06 21:31 35.21968 -80.94784 731 ft 2 kts 358°
2026-05-06 21:32 35.21953 -80.94784 731 ft 2 kts 358°
2026-05-06 21:32 35.21923 -80.94782 730 ft 2 kts 358°
2026-05-06 21:32 35.21909 -80.94782 730 ft 2 kts 358°
2026-05-06 21:33 35.21894 -80.94778 730 ft 2 kts 322°
2026-05-06 21:33 35.21885 -80.94765 730 ft 2 kts 291°
2026-05-06 21:33 35.21883 -80.94747 729 ft 2 kts 263°
2026-05-06 21:33 35.21885 -80.94735 730 ft 1 kts 264°
2026-05-06 21:34 35.21885 -80.94731 730 ft 0 kts 265°
2026-05-06 21:36 35.21885 -80.94732 729 ft 0 kts 265°
2026-05-06 21:36 35.21880 -80.94810 729 ft 19 kts 266°
2026-05-06 21:36 35.21872 -80.94990 729 ft 18 kts 280°
2026-05-06 21:37 35.21955 -80.95051 731 ft 12 kts 356°
2026-05-06 21:37 35.22033 -80.95055 732 ft 11 kts 356°
2026-05-06 21:37 35.22123 -80.95064 734 ft 15 kts 355°
2026-05-06 21:37 35.22242 -80.95073 737 ft 17 kts 356°
2026-05-06 21:38 35.22348 -80.95082 739 ft 13 kts 355°
2026-05-06 21:38 35.22414 -80.95087 740 ft 11 kts 356°
2026-05-06 21:38 35.22485 -80.95094 741 ft 10 kts 355°
2026-05-06 21:38 35.22568 -80.95101 742 ft 16 kts 355°
2026-05-06 21:39 35.22677 -80.95111 744 ft 11 kts 354°
2026-05-06 21:39 35.22728 -80.95151 744 ft 7 kts 289°
2026-05-06 21:39 35.22733 -80.95213 744 ft 8 kts 270°
2026-05-06 21:39 35.22724 -80.95290 744 ft 8 kts 234°
2026-05-06 21:40 35.22683 -80.95308 744 ft 5 kts 178°
2026-05-06 21:40 35.22631 -80.95304 744 ft 19 kts 176°
2026-05-06 21:40 35.22239 -80.95271 738 ft 92 kts 176°
2026-05-06 21:40 35.21390 -80.95199 722 ft 148 kts 176°
2026-05-06 21:41 35.20289 -80.95061 1037 ft 161 kts 173°
2026-05-06 21:41 35.19141 -80.94827 1505 ft 176 kts 170°
2026-05-06 21:41 35.17981 -80.94518 2298 ft 172 kts 171°
2026-05-06 21:41 35.16795 -80.94237 2950 ft 176 kts 173°
2026-05-06 21:42 35.15600 -80.94008 3698 ft 178 kts 175°
2026-05-06 21:42 35.14339 -80.93728 4217 ft 197 kts 175°
2026-05-06 21:42 35.12983 -80.93366 4707 ft 203 kts 172°
2026-05-06 21:42 35.11565 -80.92974 5017 ft 218 kts 172°
2026-05-06 21:43 35.10129 -80.92039 5301 ft 252 kts 139°
2026-05-06 21:43 35.09276 -80.90050 5566 ft 285 kts 103°
2026-05-06 21:43 35.09417 -80.87567 5862 ft 307 kts 75°
2026-05-06 21:43 35.10051 -80.85071 6560 ft 309 kts 71°
2026-05-06 21:44 35.10720 -80.82591 7174 ft 313 kts 70°
2026-05-06 21:44 35.11399 -80.80080 7773 ft 317 kts 70°
2026-05-06 21:44 35.12088 -80.77531 8369 ft 320 kts 69°
2026-05-06 21:44 35.12787 -80.74939 8983 ft 322 kts 69°
2026-05-06 21:45 35.13488 -80.72340 9521 ft 327 kts 68°
2026-05-06 21:45 35.14198 -80.69707 10100 ft 330 kts 68°
2026-05-06 21:45 35.14930 -80.66994 10344 ft 348 kts 68°
2026-05-06 21:45 35.15707 -80.64111 10608 ft 365 kts 68°
2026-05-06 21:46 35.16513 -80.61109 10888 ft 382 kts 69°
2026-05-06 21:46 35.17349 -80.57992 11239 ft 397 kts 69°
2026-05-06 21:46 35.18234 -80.54685 11567 ft 415 kts 69°
2026-05-06 21:46 35.19141 -80.51283 12033 ft 428 kts 69°
2026-05-06 21:47 35.20064 -80.47815 12760 ft 434 kts 69°
2026-05-06 21:47 35.20996 -80.44305 13555 ft 439 kts 69°
2026-05-06 21:47 35.21929 -80.40780 14365 ft 444 kts 69°
2026-05-06 21:47 35.22885 -80.37161 15343 ft 447 kts 68°
2026-05-06 21:48 35.23826 -80.33594 16255 ft 451 kts 69°
2026-05-06 21:48 35.24788 -80.29938 17061 ft 457 kts 69°
2026-05-06 21:48 35.25771 -80.26195 17762 ft 467 kts 69°
2026-05-06 21:48 35.26762 -80.22410 18551 ft 473 kts 69°
2026-05-06 21:49 35.27763 -80.18567 19543 ft 475 kts 69°
2026-05-06 21:49 35.28763 -80.14716 20446 ft 479 kts 69°
2026-05-06 21:49 35.29761 -80.10845 21238 ft 485 kts 69°
2026-05-06 21:49 35.30769 -80.06921 22028 ft 489 kts 68°
2026-05-06 21:50 35.31726 -80.03669 22709 ft 492 kts 66°
2026-05-06 21:50 35.32624 -80.00680 23286 ft 496 kts 66°
2026-05-06 21:50 35.33352 -79.98247 23708 ft 500 kts 66°
2026-05-06 21:50 35.34156 -79.95551 24154 ft 505 kts 66°
2026-05-06 21:51 35.35350 -79.91518 24799 ft 513 kts 67°
2026-05-06 21:51 35.36560 -79.87411 25510 ft 518 kts 66°
2026-05-06 21:51 35.37775 -79.83266 26202 ft 522 kts 67°
2026-05-06 21:51 35.38982 -79.79144 26814 ft 528 kts 66°
2026-05-06 21:52 35.40228 -79.74874 27469 ft 533 kts 66°
2026-05-06 21:52 35.41470 -79.70609 28085 ft 538 kts 67°
2026-05-06 21:52 35.42715 -79.66319 28661 ft 542 kts 67°
2026-05-06 21:52 35.43997 -79.61896 29170 ft 549 kts 67°
2026-05-06 21:53 35.45272 -79.57488 29712 ft 554 kts 66°
2026-05-06 21:53 35.46549 -79.53063 30408 ft 555 kts 66°
2026-05-06 21:53 35.47839 -79.48582 31160 ft 555 kts 66°
2026-05-06 21:53 35.49115 -79.44140 31859 ft 555 kts 65°
2026-05-06 21:54 35.50394 -79.39686 32492 ft 558 kts 65°
2026-05-06 21:54 35.51676 -79.35213 33140 ft 559 kts 64°
2026-05-06 21:54 35.52958 -79.30730 33883 ft 558 kts 64°
2026-05-06 21:54 35.54240 -79.26240 34559 ft 559 kts 64°
2026-05-06 21:55 35.55510 -79.21786 35168 ft 560 kts 64°
2026-05-06 21:55 35.56799 -79.17257 35734 ft 562 kts 64°
2026-05-06 21:55 35.58087 -79.12724 36360 ft 562 kts 64°
2026-05-06 21:55 35.59367 -79.08209 36988 ft 561 kts 63°
2026-05-06 21:56 35.60661 -79.03657 37600 ft 560 kts 63°
2026-05-06 21:56 35.61940 -78.99164 38006 ft 562 kts 64°
2026-05-06 21:56 35.63220 -78.94659 38374 ft 565 kts 63°
2026-05-06 21:56 35.64526 -78.90054 38823 ft 565 kts 63°
2026-05-06 21:57 35.65810 -78.85519 38940 ft 569 kts 63°
2026-05-06 21:57 35.67111 -78.80914 38935 ft 566 kts 63°
2026-05-06 21:57 35.69648 -78.71906 38942 ft 567 kts 63°
2026-05-06 21:58 35.72200 -78.62822 38945 ft 566 kts 63°
2026-05-06 21:58 35.74730 -78.53776 38933 ft 563 kts 63°
2026-05-06 21:59 35.77265 -78.44695 38931 ft 561 kts 63°
2026-05-06 21:59 35.79792 -78.35611 38935 ft 566 kts 63°
2026-05-06 22:00 35.82316 -78.26486 38917 ft 561 kts 64°
2026-05-06 22:00 35.84824 -78.17400 38908 ft 560 kts 63°
2026-05-06 22:01 35.87312 -78.08363 38917 ft 560 kts 63°
2026-05-06 22:01 35.89732 -77.99548 38919 ft 558 kts 64°
2026-05-06 22:02 35.92242 -77.90382 38921 ft 561 kts 64°
2026-05-06 22:02 35.94691 -77.81388 38918 ft 557 kts 63°
2026-05-06 22:03 35.97466 -77.72582 38932 ft 547 kts 52°
2026-05-06 22:03 36.01549 -77.65203 38930 ft 534 kts 37°
2026-05-06 22:04 36.06536 -77.58467 38923 ft 522 kts 35°
2026-05-06 22:04 36.11203 -77.52217 38931 ft 518 kts 36°
2026-05-06 22:05 36.16100 -77.45648 38930 ft 523 kts 35°
2026-05-06 22:05 36.20927 -77.39143 38925 ft 518 kts 36°
2026-05-06 22:06 36.25809 -77.32555 38905 ft 519 kts 36°
2026-05-06 22:06 36.30699 -77.25948 38922 ft 522 kts 34°
2026-05-06 22:07 36.35932 -77.19903 38921 ft 513 kts 30°
2026-05-06 22:07 36.41211 -77.14007 38916 ft 511 kts 30°
2026-05-06 22:08 36.46459 -77.08133 38916 ft 509 kts 30°
2026-05-06 22:08 36.51678 -77.02275 38913 ft 506 kts 30°
2026-05-06 22:09 36.56923 -76.96385 38916 ft 511 kts 30°
2026-05-06 22:09 36.62152 -76.90487 38930 ft 506 kts 30°
2026-05-06 22:10 36.67370 -76.84598 38913 ft 513 kts 30°
2026-05-06 22:10 36.72610 -76.78659 38918 ft 509 kts 30°
2026-05-06 22:11 36.77860 -76.72707 38916 ft 514 kts 30°
2026-05-06 22:11 36.83114 -76.66732 38917 ft 509 kts 30°
2026-05-06 22:12 36.88330 -76.60799 38910 ft 513 kts 30°
2026-05-06 22:12 36.93557 -76.54833 38909 ft 508 kts 30°
2026-05-06 22:13 36.98789 -76.48862 38902 ft 515 kts 31°
2026-05-06 22:13 37.04086 -76.42796 38900 ft 514 kts 31°
2026-05-06 22:14 37.09322 -76.36787 38903 ft 510 kts 30°
2026-05-06 22:14 37.14505 -76.30830 38895 ft 512 kts 31°
2026-05-06 22:15 37.19738 -76.24804 38889 ft 508 kts 31°
2026-05-06 22:15 37.24958 -76.18785 38874 ft 512 kts 32°
2026-05-06 22:16 37.30188 -76.12737 38888 ft 512 kts 31°
2026-05-06 22:16 37.35419 -76.06681 38879 ft 514 kts 31°
2026-05-06 22:17 37.40619 -76.00642 38891 ft 512 kts 31°
2026-05-06 22:17 37.45850 -75.94559 38887 ft 513 kts 31°
2026-05-06 22:18 37.51082 -75.88464 38893 ft 514 kts 31°
2026-05-06 22:18 37.53787 -75.85619 38895 ft 497 kts 24°
2026-05-06 22:18 37.56621 -75.83286 38895 ft 485 kts 18°
2026-05-06 22:19 37.62447 -75.78954 38900 ft 489 kts 18°
2026-05-06 22:19 37.68292 -75.74595 38904 ft 491 kts 18°
2026-05-06 22:20 37.74202 -75.70167 38897 ft 492 kts 18°
2026-05-06 22:20 37.80074 -75.65756 38902 ft 497 kts 19°
2026-05-06 22:21 37.85970 -75.61256 38902 ft 497 kts 21°
2026-05-06 22:21 37.91592 -75.56338 38901 ft 502 kts 23°
2026-05-06 22:22 37.97345 -75.51276 38903 ft 501 kts 23°
2026-05-06 22:22 38.03052 -75.46264 38908 ft 499 kts 22°
2026-05-06 22:23 38.08766 -75.41391 38899 ft 497 kts 20°
2026-05-06 22:23 38.14580 -75.36677 38918 ft 495 kts 20°
2026-05-06 22:24 38.17432 -75.34350 38922 ft 482 kts 20°
2026-05-06 22:24 38.20217 -75.32070 38806 ft 468 kts 20°
2026-05-06 22:24 38.22936 -75.29949 38242 ft 457 kts 15°
2026-05-06 22:24 38.25832 -75.28281 36863 ft 456 kts
2026-05-06 22:25 38.28846 -75.27216 35479 ft 453 kts 358°
2026-05-06 22:25 38.31902 -75.26573 34909 ft 444 kts 356°
2026-05-06 22:25 38.38013 -75.25355 34887 ft 450 kts 357°
2026-05-06 22:26 38.44179 -75.24091 34883 ft 449 kts 357°
2026-05-06 22:26 38.50340 -75.22809 34873 ft 449 kts 356°
2026-05-06 22:27 38.56536 -75.21522 34869 ft 455 kts 356°
2026-05-06 22:27 38.62698 -75.20227 34869 ft 452 kts 356°
2026-05-06 22:28 38.68935 -75.18552 34864 ft 472 kts
2026-05-06 22:28 38.74797 -75.14536 34856 ft 489 kts 26°
2026-05-06 22:29 38.77506 -75.11861 34878 ft 501 kts 28°
2026-05-06 22:29 38.80293 -75.09075 34880 ft 510 kts 27°
2026-05-06 22:29 38.85834 -75.03542 34708 ft 499 kts 27°
2026-05-06 22:30 38.88551 -75.00843 33817 ft 503 kts 28°
2026-05-06 22:30 38.91338 -74.98083 33065 ft 504 kts 27°
2026-05-06 22:30 38.94081 -74.95367 32373 ft 504 kts 28°
2026-05-06 22:30 38.96857 -74.92621 31610 ft 506 kts 28°
2026-05-06 22:31 38.99628 -74.89880 30827 ft 508 kts 28°
2026-05-06 22:31 39.02440 -74.87093 30231 ft 504 kts 28°
2026-05-06 22:31 39.05176 -74.84379 29774 ft 498 kts 28°
2026-05-06 22:31 39.07902 -74.81674 29262 ft 494 kts 28°
2026-05-06 22:32 39.10614 -74.78968 28763 ft 491 kts 29°
2026-05-06 22:32 39.13221 -74.76179 28230 ft 490 kts 31°
2026-05-06 22:32 39.15792 -74.73381 27670 ft 488 kts 31°
2026-05-06 22:32 39.18403 -74.70541 27129 ft 485 kts 31°
2026-05-06 22:33 39.20958 -74.67762 26605 ft 482 kts 31°
2026-05-06 22:33 39.23497 -74.65002 26084 ft 478 kts 31°
2026-05-06 22:33 39.26025 -74.62256 25592 ft 475 kts 31°
2026-05-06 22:33 39.28528 -74.59537 25093 ft 472 kts 31°
2026-05-06 22:34 39.31020 -74.56827 24590 ft 470 kts 31°
2026-05-06 22:34 39.33509 -74.54121 24091 ft 467 kts 32°
2026-05-06 22:34 39.35988 -74.51423 23594 ft 464 kts 31°
2026-05-06 22:34 39.38461 -74.48729 23098 ft 462 kts 31°
2026-05-06 22:35 39.40890 -74.46081 22607 ft 459 kts 32°
2026-05-06 22:35 39.43296 -74.43458 22089 ft 457 kts 32°
2026-05-06 22:35 39.45725 -74.40805 21580 ft 454 kts 32°
2026-05-06 22:35 39.48134 -74.38173 21100 ft 451 kts 32°
2026-05-06 22:36 39.50513 -74.35572 20588 ft 449 kts 32°
2026-05-06 22:36 39.52893 -74.32967 20075 ft 447 kts 33°
2026-05-06 22:36 39.55253 -74.30381 19516 ft 444 kts 33°
2026-05-06 22:36 39.57590 -74.27818 19019 ft 441 kts 33°
2026-05-06 22:37 39.59891 -74.25292 18547 ft 437 kts 34°
2026-05-06 22:37 39.61750 -74.23250 18191 ft 433 kts 34°
2026-05-06 22:37 39.63422 -74.21412 17857 ft 430 kts 34°
2026-05-06 22:37 39.65665 -74.18944 17413 ft 425 kts 34°
2026-05-06 22:38 39.67905 -74.16478 16999 ft 420 kts 34°
2026-05-06 22:38 39.70094 -74.14066 16569 ft 416 kts 35°
2026-05-06 22:38 39.72275 -74.11661 16138 ft 411 kts 35°
2026-05-06 22:38 39.74244 -74.09486 15750 ft 408 kts 35°
2026-05-06 22:39 39.76367 -74.07141 15329 ft 403 kts 35°
2026-05-06 22:39 39.78513 -74.04768 14950 ft 398 kts 36°
2026-05-06 22:39 39.80590 -74.02470 14613 ft 396 kts 35°
2026-05-06 22:39 39.82700 -74.00137 14241 ft 399 kts 35°
2026-05-06 22:40 39.84924 -73.98048 13825 ft 392 kts 25°
2026-05-06 22:40 39.87315 -73.96311 13425 ft 392 kts 23°
2026-05-06 22:40 39.89673 -73.94645 13041 ft 389 kts 23°
2026-05-06 22:40 39.92044 -73.92969 12628 ft 386 kts 23°
2026-05-06 22:41 39.96722 -73.89657 11832 ft 380 kts 23°
2026-05-06 22:41 39.99017 -73.88030 11444 ft 377 kts 23°
2026-05-06 22:41 40.01324 -73.86393 11065 ft 375 kts 24°
2026-05-06 22:42 40.03566 -73.84716 10768 ft 370 kts 27°
2026-05-06 22:42 40.05707 -73.82953 10585 ft 353 kts 27°
2026-05-06 22:42 40.07697 -73.81292 10353 ft 335 kts 27°
2026-05-06 22:42 40.09622 -73.79675 10191 ft 317 kts 27°
2026-05-06 22:43 40.11443 -73.78129 9769 ft 312 kts 27°
2026-05-06 22:43 40.13248 -73.76601 9229 ft 311 kts 27°
2026-05-06 22:43 40.15062 -73.75073 8768 ft 307 kts 27°
2026-05-06 22:43 40.16839 -73.73590 8293 ft 303 kts 27°
2026-05-06 22:44 40.18614 -73.72109 7837 ft 299 kts 27°
2026-05-06 22:44 40.20345 -73.70661 7332 ft 297 kts 27°
2026-05-06 22:44 40.22063 -73.69231 6901 ft 292 kts 27°
2026-05-06 22:44 40.23765 -73.67825 6394 ft 290 kts 27°
2026-05-06 22:45 40.25462 -73.66419 5907 ft 287 kts 27°
2026-05-06 22:45 40.27137 -73.65037 5400 ft 286 kts 27°
2026-05-06 22:45 40.28816 -73.63648 4871 ft 284 kts 27°
2026-05-06 22:45 40.30489 -73.62276 4383 ft 282 kts 27°
2026-05-06 22:46 40.31507 -73.61446 4130 ft 278 kts 27°
2026-05-06 22:46 40.32827 -73.60369 4036 ft 278 kts 27°
2026-05-06 22:46 40.34493 -73.59022 3986 ft 281 kts 27°
2026-05-06 22:46 40.36151 -73.57675 3984 ft 281 kts 27°
2026-05-06 22:47 40.37816 -73.56329 3986 ft 280 kts 27°
2026-05-06 22:47 40.39466 -73.54992 3988 ft 281 kts 27°
2026-05-06 22:47 40.41124 -73.53644 3982 ft 281 kts 27°
2026-05-06 22:47 40.42791 -73.52289 3984 ft 281 kts 27°
2026-05-06 22:48 40.44464 -73.50954 3974 ft 279 kts 22°
2026-05-06 22:48 40.46279 -73.50269 3979 ft 271 kts 359°
2026-05-06 22:48 40.48180 -73.50072 3985 ft 271 kts 357°
2026-05-06 22:48 40.50048 -73.49902 3989 ft 268 kts 357°
2026-05-06 22:49 40.51904 -73.49734 3987 ft 268 kts 357°
2026-05-06 22:49 40.53715 -73.49575 3983 ft 266 kts 357°
2026-05-06 22:49 40.55584 -73.49413 3988 ft 267 kts 357°
2026-05-06 22:49 40.57442 -73.49245 3988 ft 266 kts 357°
2026-05-06 22:50 40.59277 -73.49084 3930 ft 262 kts 357°
2026-05-06 22:50 40.60388 -73.48988 3764 ft 261 kts 357°
2026-05-06 22:50 40.61174 -73.48920 3601 ft 263 kts 357°